Weather History for Sparta, TN

Change the Weather History Date:

Thursday, February 6, 2014

  Actual Average (KCSV) Record (KCSV)
Temperature  
Mean Temperature 24 °F 37 °F  
Max Temperature 26 °F 46 °F 65 °F (1963)
Min Temperature 21 °F 29 °F 1 °F (1988)
Degree Days  
Heating Degree Days 42    
Month to date heating degree days  
Since 1 July heating degree days  
Cooling Degree Days 0    
Month to date cooling degree days  
Year to date cooling degree days  
Moisture  
Dew Point 18 °F    
Average Humidity 77    
Maximum Humidity 93    
Minimum Humidity 68    
Precipitation  
Precipitation 0.00 in 0.16 in 1.28 in (1955)
Month to date precipitation 0.97  
Year to date precipitation 5.73  
Sea Level Pressure  
Sea Level Pressure 30.36 in    
Wind  
Wind Speed 5 mph (NNE)    
Max Wind Speed 8 mph    
Max Gust Speed -    
Visibility 10 miles    
Events      
T = Trace of Precipitation, MM = Missing Value Source: NWS Daily Summary

Daily Weather History Graph

Daily Weather History Graph

Search for Another Location

Airport:

Trip Planner

Search our weather history database for the weather conditions in past years. The results will help you decide how hot, cold, wet, or windy it might be!

Date:

Astronomy

Feb. 06, 2014 Rise Set
Actual Time 6:38 AM CST 5:14 PM CST
Civil Twilight 6:11 AM CST 5:41 PM CST
Nautical Twilight 5:41 AM CST 6:11 PM CST
Astronomical Twilight 5:11 AM CST 6:41 PM CST
Moon 10:46 AM CST (2/6) No Moon Set
Length of Visible Light 11h 29m
Length of Day
10h 35m
Waxing Crescent, 49% of the Moon is Illuminated
Feb 6
Waxing Crescent
Feb 6
First Quarter
Feb 14
Full
Feb 22
Last Quarter
Mar 1
New

Hourly Weather History & Observations

Time (CST) Temp. Windchill Dew Point Humidity Pressure Visibility Wind Dir Wind Speed Gust Speed Precip Events Conditions
12:55 AM 24.8 °F 16.9 °F 15.8 °F 69% 30.34 in 10.0 mi NNE 6.9 mph - N/A   Mostly Cloudy
1:15 AM 24.8 °F 20.5 °F 15.8 °F 69% 30.34 in 10.0 mi NNE 3.5 mph - N/A   Overcast
1:35 AM 23.0 °F 14.7 °F 15.8 °F 74% 30.34 in 10.0 mi NNE 6.9 mph - N/A   Overcast
1:55 AM 23.0 °F 17.0 °F 15.8 °F 74% 30.33 in 10.0 mi NNE 4.6 mph - N/A   Overcast
2:15 AM 23.0 °F 17.0 °F 15.8 °F 74% 30.33 in 10.0 mi North 4.6 mph - N/A   Overcast
2:35 AM 23.0 °F 14.7 °F 14.0 °F 68% 30.33 in 10.0 mi Variable 6.9 mph - N/A   Overcast
2:55 AM 23.0 °F 13.9 °F 15.8 °F 74% 30.33 in 10.0 mi NNE 8.1 mph - N/A   Overcast
3:15 AM 23.0 °F 14.7 °F 15.8 °F 74% 30.32 in 10.0 mi NNE 6.9 mph - N/A   Overcast
3:35 AM 23.0 °F 18.4 °F 15.8 °F 74% 30.33 in 10.0 mi NNE 3.5 mph - N/A   Overcast
3:55 AM 23.0 °F 18.4 °F 15.8 °F 74% 30.33 in 10.0 mi NE 3.5 mph - N/A   Overcast
4:15 AM 23.0 °F 15.8 °F 15.8 °F 74% 30.34 in 10.0 mi NNE 5.8 mph - N/A   Overcast
4:35 AM 23.0 °F 14.7 °F 15.8 °F 74% 30.34 in 10.0 mi NNE 6.9 mph - N/A   Overcast
4:55 AM 23.0 °F 18.4 °F 15.8 °F 74% 30.35 in 10.0 mi NE 3.5 mph - N/A   Overcast
5:15 AM 23.0 °F 17.0 °F 15.8 °F 74% 30.34 in 10.0 mi NE 4.6 mph - N/A   Overcast
5:35 AM 23.0 °F 14.7 °F 15.8 °F 74% 30.36 in 10.0 mi NNE 6.9 mph - N/A   Overcast
5:55 AM 23.0 °F 14.7 °F 15.8 °F 74% 30.37 in 10.0 mi NNE 6.9 mph - N/A   Overcast
6:15 AM 23.0 °F 18.4 °F 17.6 °F 80% 30.36 in 10.0 mi NNE 3.5 mph - N/A   Overcast
6:35 AM 23.0 °F 15.8 °F 17.6 °F 80% 30.38 in 10.0 mi NNE 5.8 mph - N/A   Overcast
6:55 AM 23.0 °F 17.0 °F 17.6 °F 80% 30.38 in 10.0 mi NE 4.6 mph - N/A   Overcast
7:15 AM 23.0 °F - 17.6 °F 80% 30.38 in 10.0 mi Calm Calm - N/A   Overcast
7:35 AM 23.0 °F 18.4 °F 17.6 °F 80% 30.40 in 10.0 mi NE 3.5 mph - N/A   Overcast
7:55 AM 23.0 °F 17.0 °F 17.6 °F 80% 30.40 in 10.0 mi NNE 4.6 mph - N/A   Overcast
8:15 AM 24.8 °F 17.9 °F 17.6 °F 74% 30.41 in 10.0 mi NE 5.8 mph - N/A   Overcast
8:35 AM 24.8 °F 19.1 °F 17.6 °F 74% 30.40 in 10.0 mi NE 4.6 mph - N/A   Overcast
8:55 AM 24.8 °F 19.1 °F 17.6 °F 74% 30.42 in 10.0 mi NE 4.6 mph - N/A   Overcast
9:15 AM 24.8 °F 19.1 °F 17.6 °F 74% 30.41 in 10.0 mi NNE 4.6 mph - N/A   Overcast
9:35 AM 24.8 °F 19.1 °F 17.6 °F 74% 30.41 in 10.0 mi NNE 4.6 mph - N/A   Mostly Cloudy
9:55 AM 24.8 °F 17.9 °F 17.6 °F 74% 30.41 in 10.0 mi NNE 5.8 mph - N/A   Mostly Cloudy
10:15 AM 24.8 °F - 17.6 °F 74% 30.41 in - Calm Calm - N/A   Unknown
10:35 AM 24.8 °F - 17.6 °F 74% 30.41 in 10.0 mi Calm Calm - N/A   Mostly Cloudy
10:55 AM 24.8 °F 19.1 °F 17.6 °F 74% 30.40 in 10.0 mi North 4.6 mph - N/A   Overcast
11:15 AM 26.6 °F 20.0 °F 19.4 °F 74% 30.39 in 10.0 mi North 5.8 mph - N/A   Overcast
11:35 AM 24.8 °F 19.1 °F 19.4 °F 80% 30.39 in 10.0 mi North 4.6 mph - N/A   Overcast
11:55 AM 24.8 °F 19.1 °F 19.4 °F 80% 30.37 in 10.0 mi Variable 4.6 mph - N/A   Overcast
12:15 PM 24.8 °F 19.1 °F 19.4 °F 80% 30.37 in 10.0 mi NNW 4.6 mph - N/A   Overcast
12:35 PM 24.8 °F 19.1 °F 19.4 °F 80% 30.36 in 10.0 mi North 4.6 mph - N/A   Overcast
12:55 PM 26.6 °F - 19.4 °F 74% 30.35 in 10.0 mi Calm Calm - N/A   Overcast
1:15 PM 26.6 °F 21.2 °F 19.4 °F 74% 30.35 in 10.0 mi NE 4.6 mph - N/A   Overcast
1:35 PM 26.6 °F 22.6 °F 19.4 °F 74% 30.34 in 10.0 mi NNE 3.5 mph - N/A   Overcast
1:55 PM 26.6 °F 21.2 °F 19.4 °F 74% 30.34 in 10.0 mi North 4.6 mph - N/A   Overcast
2:15 PM 26.6 °F 21.2 °F 17.6 °F 69% 30.32 in 10.0 mi North 4.6 mph - N/A   Mostly Cloudy
2:35 PM 26.6 °F 20.0 °F 17.6 °F 69% 30.32 in 10.0 mi North 5.8 mph - N/A   Mostly Cloudy
2:55 PM 26.6 °F 21.2 °F 17.6 °F 69% 30.33 in 10.0 mi North 4.6 mph - N/A   Overcast
3:15 PM 26.6 °F 21.2 °F 17.6 °F 69% 30.34 in 10.0 mi NE 4.6 mph - N/A   Overcast
3:35 PM 26.6 °F - 17.6 °F 69% 30.35 in 10.0 mi Calm Calm - N/A   Overcast
3:55 PM 26.6 °F 22.6 °F 19.4 °F 74% 30.36 in 10.0 mi North 3.5 mph - N/A   Overcast
4:15 PM 26.6 °F 22.6 °F 19.4 °F 74% 30.35 in 10.0 mi NW 3.5 mph - N/A   Overcast
4:35 PM 26.6 °F 21.2 °F 19.4 °F 74% 30.36 in 10.0 mi NNW 4.6 mph - N/A   Overcast
4:55 PM 26.6 °F - 19.4 °F 74% 30.36 in 10.0 mi Calm Calm - N/A   Mostly Cloudy
5:15 PM 24.8 °F - 19.4 °F 80% 30.36 in 10.0 mi Calm Calm - N/A   Mostly Cloudy
5:35 PM 24.8 °F - 19.4 °F 80% 30.35 in 10.0 mi Calm Calm - N/A   Mostly Cloudy
5:55 PM 24.8 °F 19.1 °F 19.4 °F 80% 30.36 in 10.0 mi North 4.6 mph - N/A   Mostly Cloudy
6:15 PM 24.8 °F 17.9 °F 19.4 °F 80% 30.37 in 10.0 mi North 5.8 mph - N/A   Mostly Cloudy
6:35 PM 24.8 °F - 19.4 °F 80% 30.38 in 10.0 mi Calm Calm - N/A   Overcast
6:55 PM 24.8 °F 19.1 °F 19.4 °F 80% 30.37 in 10.0 mi NNW 4.6 mph - N/A   Mostly Cloudy
7:15 PM 24.8 °F 19.1 °F 19.4 °F 80% 30.37 in 10.0 mi NNE 4.6 mph - N/A   Mostly Cloudy
7:35 PM 24.8 °F 17.9 °F 19.4 °F 80% 30.37 in 10.0 mi North 5.8 mph - N/A   Overcast
7:55 PM 24.8 °F - 19.4 °F 80% 30.37 in 10.0 mi Calm Calm - N/A   Overcast
8:15 PM 24.8 °F 17.9 °F 19.4 °F 80% 30.37 in 10.0 mi North 5.8 mph - N/A   Overcast
8:35 PM 23.0 °F 17.0 °F 19.4 °F 86% 30.37 in 10.0 mi North 4.6 mph - N/A   Overcast
8:55 PM 23.0 °F - 19.4 °F 86% 30.37 in 10.0 mi Calm Calm - N/A   Overcast
9:15 PM 23.0 °F - 19.4 °F 86% 30.36 in 10.0 mi Calm Calm - N/A   Overcast
9:35 PM 23.0 °F 14.7 °F 19.4 °F 86% 30.35 in 10.0 mi NNE 6.9 mph - N/A   Overcast
9:55 PM 23.0 °F - 19.4 °F 86% 30.34 in 10.0 mi Calm Calm - N/A   Overcast
10:15 PM 23.0 °F - 19.4 °F 86% 30.35 in 10.0 mi Calm Calm - N/A   Overcast
10:35 PM 23.0 °F - 19.4 °F 86% 30.35 in 10.0 mi Calm Calm - N/A   Overcast
10:55 PM 23.0 °F 17.0 °F 19.4 °F 86% 30.35 in 10.0 mi Variable 4.6 mph - N/A   Overcast
11:15 PM 21.2 °F 14.9 °F 19.4 °F 93% 30.35 in 10.0 mi North 4.6 mph - N/A   Overcast
11:35 PM 21.2 °F 16.4 °F 19.4 °F 93% 30.35 in 10.0 mi North 3.5 mph - N/A   Overcast
11:55 PM 21.2 °F - 19.4 °F 93% 30.35 in 10.0 mi Calm Calm - N/A   Overcast